Regional Weather Roundup
Issued by NWS

Home | Current Version | Previous Version | Graphics & Text | Print | Product List | Glossary On
Versions: 1 2 3 4 5 6 7 8 9 10 11 12 13 14 15 16 17 18 19 20 21 22 23 24 25 26 27 28 29 30 31 32 33 34 35 36 37 38 39 40 41 42 43 44 45 46 47 48 49 50
304
ASUS43 KDTX 200810
RWRMI
MICHIGAN HOURLY REGIONAL WEATHER ROUNDUP
NATIONAL WEATHER SERVICE DETROIT/PONTIAC MI
400 AM EDT FRI OCT 20 2017

NOTE: "FAIR" INDICATES FEW OR NO CLOUDS BELOW 12,000 FEET WITH NO
SIGNIFICANT WEATHER AND/OR OBSTRUCTION TO VISIBILITY.

MIZ047>049-052>055-059>063-066>070-074>076-081>083-200900-
SOUTHEAST LOWER MICHIGAN

CITY           SKY/WX    TMP DP  RH WIND       PRES   REMARKS
ADRIAN         FAIR      45  31  58 N3        30.21F
ALMA           FAIR      41  36  81 CALM      30.20R
ANN ARBOR      FAIR      39  33  79 NW3       30.20F
BAD AXE        FAIR      39  34  81 CALM      30.20R
CARO           FAIR      35  33  91 CALM      30.20S
DETROIT CITY   FAIR      46  36  68 CALM      30.22R
DETROIT        FAIR      48  34  58 CALM      30.22S
FLINT          FAIR      41  34  76 CALM      30.22S
GROSSE ILE     FAIR      47  35  62 CALM      30.21R
HILLSDALE      FAIR      43  32  65 CALM      30.21S
HOWELL         FAIR      41  35  79 CALM      30.21F

CITY           SKY/WX    TMP DP  RH WIND       PRES   REMARKS
JACKSON        FAIR      41  35  79 CALM      30.21F
LAMBERTVILLE   FAIR      42  35  78 CALM      30.20F
LANSING        FAIR      42  34  73 CALM      30.21F
LAPEER         FAIR      38  37  95 CALM      30.22R
MASON          FAIR      41  37  85 CALM      30.21S
MONROE         FAIR      42  34  73 CALM      30.20S
MT. CLEMENS    FAIR      43  37  79 W3        30.19S
PONTIAC        FAIR      42  36  79 CALM      30.20S
PORT HOPE        N/A     52  38  58 SW6       30.16S
PORT HURON     FAIR      39  36  87 CALM      30.20S
TRI CITIES     FAIR      45  37  73 S7        30.20S
MIDLAND        FAIR      38  35  88 CALM      30.19S
TROY           FAIR      51  32  48 W3        30.23R
SAGINAW HB     FAIR      43  36  75 SW7       30.20R
$$
MIZ043>046-050>051-056>058-064>065-071>073-077>080-200900-
SOUTHWEST LOWER MICHIGAN

CITY           SKY/WX    TMP DP  RH WIND       PRES   REMARKS
BATTLE CREEK   FAIR      42  38  85 S6        30.20F
BENTON HARBOR  FAIR      48  35  60 SE3       30.17F
BIG RAPIDS     FAIR      38  35  89 CALM      30.17S
COLDWATER      FAIR      40  39  94 CALM      30.21S
FREMONT        FAIR      44  40  86 CALM      30.16S
HOLLAND        FAIR      45  34  65 S5        30.18S
GRAND RAPIDS   FAIR      43  37  79 S3        30.18S
IONIA          FAIR      40  34  77 SE6       30.19S
KALAMAZOO      FAIR      43  38  82 S3        30.20S
LUDINGTON      FAIR      43  40  90 CALM      30.13S
MARSHALL       FAIR      39  37  92 CALM      30.21S
MOUNT PLEASANT FAIR      43  38  81 CALM      30.18R
MUSKEGON         N/A     44  38  79 E5        30.16S
SOUTH HAVEN    FAIR      46  37  71 CALM      30.17F
$$
MIZ016>042-200900-
NORTHERN LOWER MICHIGAN

CITY           SKY/WX    TMP DP  RH WIND       PRES   REMARKS
ALPENA         FAIR      48  33  56 SW5       30.14S
BEAVER ISLAND  FAIR      57  51  80 SW10G17   30.08S
BELLAIRE       FAIR      37  35  92 CALM      30.14R
CADILLAC       FAIR      38  34  82 CALM      30.15S
CHARLEVOIX     FAIR      46  40  80 SE3       30.14S
FRANKFORT      FAIR      45  44  95 CALM      30.12S
GAYLORD        FAIR      45  32  60 SW3       30.14S
GRAYLING       FAIR      33  30  88 CALM      30.15F
HARBOR SPRINGS FAIR      52  39  60 SW6       30.12R
HOUGHTON LAKE  FAIR      39  33  79 CALM      30.17S
MANISTEE       FAIR      41  39  93 E6        30.13S
OSCODA         FAIR      44  31  60 SW3       30.16S
PELLSTON       FAIR      47  39  74 SW3       30.11S
ROGERS CITY    FAIR      51  32  49 SW8       30.12S
TRAVERSE CITY  FAIR      52  38  58 CALM      30.10F
$$
MIZ007>008-015-200900-
EASTERN UPPER MICHIGAN

CITY           SKY/WX    TMP DP  RH WIND       PRES   REMARKS
KINROSS        FAIR      50  48  93 SW5       30.08S
MACKINAC ISLAN FAIR      56  42  58 SW12G18   30.09S
NEWBERRY       FAIR      48  47  97 S6        30.07R
S. S. MARIE    FAIR      43  39  86 NE3       30.07S
MUNISING         N/A     49  39  68 VRB5      30.04R
$$
MIZ004>006-011>014-085-200900-
CENTRAL UPPER MICHIGAN

CITY           SKY/WX    TMP DP  RH WIND       PRES   REMARKS
MANISTIQUE     FAIR      52  47  81 S8        30.06S
ESCANABA       FAIR      52  39  61 SW7       30.05S
MENOMINEE      FAIR      53  42  66 SW5       30.07S
SAWYER-GWINN   FAIR      42  33  70 S5        30.03S
$$
MIZ001>003-009>011-084-200900-
WESTERN UPPER MICHIGAN

CITY           SKY/WX    TMP DP  RH WIND       PRES   REMARKS
IRON MOUNTAIN  FAIR      45  33  63 SE5       30.02S
HOUGHTON       FAIR      50  34  54 SW5       29.94F
COPPER HARBOR    N/A     55  35  47 SW9G17    29.93F
IRONWOOD       FAIR      56  38  50 SW8       29.95F
$$

ABBREVIATIONS USED IN REMARKS
   TC - TEMPERATURE IN CELSIUS
  WCI - WIND CHILL INDEX
   HX - HEAT INDEX
  VSB - VISIBILITY





USA.gov is the U.S. government's official web portal to all federal, state and local government web resources and services.